| time (UTC) | temp F | wind direction | speed knots | gust knots | rain 1hr in | rain 24hr in | rain mn in | humidity % | barometer mb |
| 20260503191004 | 61 | 16 | 5.2 | 10.4 | 0.00 | 0.00 | 0.00 | 35 | 1016.2 |
| 20260503190504 | 61 | 16 | 5.2 | 11.3 | 0.00 | 0.00 | 0.00 | 36 | 1016.2 |
| 20260503190005 | 60 | 16 | 6.1 | 11.3 | 0.00 | 0.00 | 0.00 | 36 | 1016.3 |
| 20260503185504 | 61 | 16 | 5.2 | 11.3 | 0.00 | 0.00 | 0.00 | 37 | 1016.3 |
| 20260503185004 | 61 | 17 | 5.2 | 16.5 | 0.00 | 0.00 | 0.00 | 36 | 1016.5 |
| 20260503184505 | 60 | 16 | 4.3 | 16.5 | 0.00 | 0.00 | 0.00 | 39 | 1016.4 |
| 20260503183504 | 60 | 17 | 6.1 | 12.2 | 0.00 | 0.00 | 0.00 | 37 | 1016.6 |
| 20260503182005 | 60 | 16 | 6.1 | 12.2 | 0.00 | 0.00 | 0.00 | 39 | 1016.5 |
| 20260503181505 | 59 | 15 | 6.1 | 12.2 | 0.00 | 0.00 | 0.00 | 38 | 1016.6 |
| 20260503181004 | 59 | 15 | 5.2 | 14.8 | 0.00 | 0.00 | 0.00 | 39 | 1016.5 |
| 20260503180504 | 59 | 16 | 5.2 | 14.8 | 0.00 | 0.00 | 0.00 | 40 | 1016.6 |
| 20260503175004 | 59 | 15 | 5.2 | 14.8 | 0.00 | 0.00 | 0.00 | 40 | 1016.8 |
| 20260503174504 | 58 | 16 | 6.1 | 14.8 | 0.00 | 0.00 | 0.00 | 41 | 1016.7 |
| 20260503174004 | 58 | 16 | 6.1 | 14.8 | 0.00 | 0.00 | 0.00 | 40 | 1016.9 |
| 20260503173504 | 58 | 15 | 6.1 | 13.9 | 0.00 | 0.00 | 0.00 | 41 | 1017.0 |
| 20260503173005 | 58 | 15 | 7.0 | 13.9 | 0.00 | 0.00 | 0.00 | 40 | 1016.9 |
| 20260503172004 | 58 | 14 | 7.0 | 13.9 | 0.00 | 0.00 | 0.00 | 39 | 1016.8 |
| 20260503171504 | 59 | 14 | 6.1 | 13.9 | 0.00 | 0.00 | 0.00 | 40 | 1016.9 |
| 20260503170504 | 58 | 15 | 5.2 | 13.0 | 0.00 | 0.00 | 0.00 | 41 | 1017.0 |
| 20260503151004 | 56 | 17 | 4.3 | 11.3 | 0.00 | 0.01 | 0.00 | 44 | 1017.3 |
| 20260503131004 | 52 | 15 | 5.2 | 13.0 | 0.00 | 0.01 | 0.00 | 51 | 1017.1 |
| 20260503130504 | 52 | 15 | 6.1 | 12.2 | 0.00 | 0.01 | 0.00 | 51 | 1017.0 |